Theta_e
324 324 323 324 324 324 325 326 324 324 323 322 322 322 320 318 315 312 310 309 307 306 305 304 303 302 301 300 300 299 298 298 298 298 297 297 297 297 296 296 296 296 296 295 295 295 296 296 296 296 296 296 296 296 296 296 295 295 295 295 295 295 295 295 295 295 296 295 296 296 296 296 296 296 296 296 296 296 296 297 297 297 297 298 298
323 324 324 325 325 326 327 326 325 324 324 323 323 321 318 315 312 310 309 307 306 305 304 303 302 301 301 300 299 298 297 297 297 297 297 297 297 296 296 296 296 295 295 294 294 295 295 296 295 295 295 295 295 295 295 295 294 294 295 294 294 294 294 294 294 295 295 295 295 295 295 295 295 295 295 296 296 296 296 297 297 297 297 298 298
323 324 325 325 326 326 327 326 325 324 324 324 322 318 315 312 310 309 307 305 304 303 302 302 301 301 300 299 298 297 297 297 296 296 296 296 296 296 295 296 295 295 294 294 294 294 294 295 295 295 295 295 295 294 294 294 294 294 294 294 294 294 293 294 293 294 294 294 294 294 294 295 295 295 295 295 295 296 296 296 296 297 297 297 297
323 324 325 326 326 326 327 326 325 325 325 323 319 315 313 311 309 307 306 304 303 302 301 301 301 300 299 298 297 297 296 296 296 296 296 296 295 295 295 295 295 294 294 293 294 294 294 294 294 295 295 294 294 294 294 293 293 293 293 293 293 293 293 293 293 293 293 293 293 294 294 294 294 294 294 295 295 295 295 296 296 296 297 297 297
323 323 324 326 326 327 327 327 325 325 324 320 316 313 311 309 307 306 305 303 302 301 301 300 300 300 298 297 296 296 295 295 295 296 296 295 295 295 295 295 294 294 293 293 293 293 293 294 294 295 294 294 294 294 293 293 292 292 292 292 293 293 292 292 293 293 293 293 293 293 293 294 294 294 294 294 295 295 295 295 295 296 296 296 296
325 324 324 325 326 327 328 326 325 324 320 317 314 312 309 308 307 305 304 302 302 301 300 300 299 298 298 297 297 296 296 296 296 295 295 295 295 295 295 295 294 294 293 293 293 293 293 293 294 294 294 293 293 293 293 292 292 292 292 292 292 292 292 292 292 292 292 292 293 293 293 293 294 294 294 294 294 294 294 295 295 295 295 296 296
325 325 325 326 326 328 328 326 324 321 317 315 312 310 308 307 305 304 303 302 301 300 300 299 298 297 297 297 297 297 297 296 297 296 296 295 295 295 294 294 294 294 294 293 293 293 293 293 294 294 293 292 292 292 292 292 291 291 291 292 292 292 292 292 292 292 292 292 292 292 292 293 293 294 294 294 294 294 294 294 294 295 294 295 295
326 325 327 327 327 328 327 324 322 318 315 313 310 309 307 305 304 303 301 301 300 299 299 298 297 297 296 297 297 296 296 295 294 295 296 295 295 294 294 294 293 293 293 293 293 293 293 293 293 293 292 291 291 291 291 290 290 291 291 291 291 291 291 292 292 292 292 292 292 292 292 292 293 293 293 294 294 294 294 293 293 293 293 293 294
326 326 326 327 327 327 324 322 318 315 313 311 309 307 306 304 303 301 300 300 299 299 298 297 297 296 296 296 296 296 295 292 290 290 291 294 295 294 293 293 293 293 293 293 293 293 292 292 293 292 291 291 290 290 290 289 289 289 290 290 290 290 291 291 291 291 291 291 291 291 292 292 292 293 293 293 293 293 293 292 292 293 293 293 293
327 326 327 327 327 324 321 318 315 313 311 309 308 306 304 303 302 301 300 299 299 298 297 297 297 296 296 296 296 296 294 290 288 287 287 289 293 294 293 293 293 293 293 293 293 293 292 292 293 292 291 290 290 290 290 289 288 289 289 289 289 290 290 290 290 290 290 291 291 291 291 292 292 292 292 292 292 292 292 292 292 292 292 292 292
327 326 327 326 324 321 318 316 314 312 310 308 307 305 303 302 301 300 299 299 298 298 297 296 296 296 296 296 296 295 292 288 287 287 286 286 289 293 293 292 292 293 292 292 292 292 292 292 293 293 292 290 290 290 289 288 288 288 288 289 289 289 289 289 290 290 290 290 290 290 291 291 291 291 291 291 291 291 291 291 291 292 292 292 292
326 326 326 324 321 319 317 315 313 311 309 308 306 304 303 302 301 300 300 299 298 298 297 297 296 296 296 296 296 294 290 287 287 287 286 285 286 290 293 292 292 292 292 292 292 291 291 292 292 292 291 290 290 290 288 288 288 288 289 289 289 289 289 289 289 290 290 290 290 290 290 290 290 290 290 291 290 290 291 291 291 291 291 291 292
326 325 323 321 320 318 315 314 312 310 308 307 305 304 303 302 301 300 300 299 298 297 297 296 296 296 296 296 296 294 290 287 286 286 286 285 285 289 292 292 292 292 291 291 291 291 291 291 291 292 291 290 290 289 287 287 288 288 290 290 290 290 289 289 289 289 289 289 289 289 289 289 289 290 290 290 290 290 290 290 290 290 290 291 292
325 323 321 320 318 316 314 313 311 309 308 306 305 304 303 302 301 300 299 299 298 297 297 296 295 295 296 296 295 293 289 286 286 285 284 284 285 289 292 292 293 292 291 291 291 291 291 290 290 291 290 290 290 287 285 286 287 288 290 290 290 290 290 289 289 289 289 289 289 289 289 289 289 290 290 290 290 290 290 290 290 290 290 291 292
323 321 319 318 317 315 314 312 310 309 307 306 305 304 303 302 301 300 300 299 298 297 296 296 295 295 296 296 295 292 288 285 285 284 283 284 287 290 292 293 293 292 291 291 291 290 290 289 290 290 288 289 288 284 282 284 286 288 289 289 289 290 289 290 289 288 288 288 288 288 289 289 289 289 290 290 290 290 289 289 289 289 290 292 294
321 320 318 318 316 315 313 311 309 308 307 306 305 304 303 302 301 300 300 299 298 297 296 295 295 295 295 296 296 293 288 285 284 284 283 284 288 292 293 293 292 292 292 291 290 290 289 288 289 288 287 288 286 282 280 282 285 288 289 288 289 289 289 289 288 287 287 287 288 288 288 289 289 289 290 290 290 289 289 289 289 290 291 293 295
320 319 318 317 316 314 312 311 309 308 307 306 305 304 303 302 301 300 299 299 298 296 295 295 295 295 295 295 296 295 290 285 283 283 283 284 288 292 293 292 292 291 291 292 290 290 289 288 288 288 286 285 283 280 279 282 285 287 288 288 288 288 288 289 288 287 287 288 288 289 289 289 289 290 290 290 290 289 289 289 289 290 291 293 294
319 318 317 316 315 313 312 310 309 308 307 306 305 304 303 302 301 300 299 299 297 296 296 296 296 296 295 293 293 295 292 286 282 283 284 283 288 293 292 291 292 291 290 291 291 290 289 288 287 287 285 282 281 279 279 281 284 286 287 287 288 287 288 288 287 287 288 289 289 289 289 290 290 291 291 291 290 290 289 289 289 289 290 292 293
318 317 316 315 314 313 311 310 309 307 307 306 305 304 303 302 300 300 299 298 297 296 296 296 296 296 295 292 291 293 294 289 283 283 284 283 286 291 293 290 290 291 290 291 290 290 289 288 288 287 284 281 279 280 279 280 282 285 286 286 286 286 286 286 286 287 288 289 290 290 290 291 291 291 291 291 290 290 289 289 289 290 290 291 292
317 316 314 314 313 312 311 310 309 307 306 306 305 304 303 301 300 300 298 297 297 296 296 296 295 295 294 293 292 293 293 291 286 282 283 284 284 288 292 290 288 290 291 290 290 290 289 288 289 287 283 280 279 279 279 279 280 283 285 285 284 284 284 284 286 287 288 289 290 290 290 291 291 291 291 290 290 290 289 290 290 290 291 291 291
315 314 313 313 312 311 310 309 308 307 306 305 304 303 302 301 300 299 298 297 296 296 295 295 295 294 293 293 294 292 291 291 289 284 282 283 283 285 289 289 286 288 291 290 289 290 288 288 288 286 282 280 279 280 279 279 280 283 284 282 282 283 283 284 286 288 289 289 289 290 290 291 291 291 290 290 290 290 290 291 291 291 291 291 292
314 313 312 312 311 310 310 309 307 306 305 304 303 303 302 301 300 299 298 297 296 295 295 294 294 294 293 292 293 292 289 289 289 286 283 283 283 284 286 285 284 287 290 290 289 289 288 288 287 284 282 281 280 280 280 280 281 283 282 280 281 282 283 285 287 288 289 289 289 290 290 290 290 290 290 290 289 290 290 291 291 292 292 292 293
313 312 311 310 310 310 308 307 306 305 304 304 303 302 302 301 299 298 297 296 296 296 295 295 294 294 294 292 292 292 291 289 287 285 284 283 283 283 283 283 283 286 289 289 288 288 287 286 285 283 282 282 281 281 282 282 282 282 281 280 282 283 284 286 287 287 288 289 289 289 290 290 290 290 289 289 290 290 291 291 291 292 292 293 294
312 311 310 310 309 308 307 305 305 304 304 303 303 302 301 300 299 297 296 296 296 296 295 295 294 294 294 293 292 292 292 291 288 285 283 284 284 283 283 283 283 284 288 289 287 287 286 284 283 283 282 282 282 283 284 284 283 282 281 281 282 284 285 286 286 287 288 288 289 289 289 289 289 289 289 289 290 290 291 291 292 292 293 293 294
311 310 309 309 308 307 306 305 304 304 303 303 302 302 301 300 298 297 296 296 296 296 295 294 295 294 293 293 293 292 292 292 291 288 286 286 286 285 285 285 284 285 287 287 286 285 284 283 283 283 283 283 284 284 285 285 283 282 282 283 283 284 284 285 285 286 287 288 288 289 289 288 288 288 289 289 290 291 291 291 292 292 292 293 294
311 310 309 308 307 306 305 305 304 304 303 302 302 301 300 299 298 296 296 296 295 295 295 294 294 294 294 293 293 293 292 292 293 292 290 289 289 288 287 287 286 286 287 287 286 286 285 285 285 285 285 285 285 285 286 285 284 284 284 284 284 284 284 284 285 286 287 287 287 288 288 288 288 288 288 289 290 291 290 291 291 292 292 293 294
310 309 308 307 306 306 305 304 304 303 302 302 302 301 299 298 298 297 296 296 296 295 295 294 294 294 294 294 293 293 293 292 293 293 292 291 290 289 289 289 288 288 288 287 286 287 287 287 287 287 286 286 286 286 286 286 285 285 285 284 284 284 284 284 284 285 286 286 287 288 288 288 288 288 288 289 290 290 290 290 291 292 292 292 293
310 309 308 307 306 306 305 303 303 303 302 301 301 300 299 298 298 297 296 296 295 295 294 294 294 294 294 294 293 293 293 293 293 292 290 288 288 289 289 288 288 288 287 285 284 287 288 288 288 288 287 287 287 287 286 286 286 285 285 284 284 284 284 284 284 285 285 286 286 287 287 287 288 288 288 289 290 290 290 290 291 291 292 292 293
310 309 308 307 306 306 304 303 303 302 302 301 301 300 299 298 298 297 296 295 295 295 295 294 294 294 294 294 294 294 294 294 291 289 286 285 285 286 286 286 285 286 285 283 284 287 289 289 289 288 288 287 287 287 286 286 286 285 285 284 284 284 283 284 284 284 285 285 286 286 287 287 287 287 287 288 289 289 290 290 291 291 291 291 292
310 309 308 307 306 305 304 303 303 303 302 301 301 299 298 297 297 297 296 295 293 293 294 294 294 294 294 294 293 294 295 294 289 286 285 285 284 284 284 284 283 284 283 283 285 288 289 289 289 288 287 287 287 286 286 286 285 285 285 284 284 284 283 283 283 284 284 285 285 286 286 286 286 286 287 287 288 289 290 290 291 291 291 291 291
310 309 308 307 306 305 305 304 303 303 302 301 301 299 297 296 295 295 295 294 291 290 291 292 292 292 292 293 292 291 291 290 287 285 285 285 284 284 283 283 283 283 283 284 286 288 289 288 288 288 287 287 287 286 286 286 285 285 285 284 284 284 283 283 283 283 284 284 284 285 285 285 285 286 286 286 287 289 289 290 290 290 290 290 291
311 309 308 307 305 304 305 304 303 303 302 301 301 300 298 296 295 294 293 292 291 290 290 290 289 289 290 291 291 290 289 287 286 286 286 285 285 284 283 283 283 283 283 285 287 288 288 288 288 287 287 287 286 286 286 285 285 285 285 284 284 284 283 283 283 283 283 284 284 284 284 284 285 285 285 286 287 288 289 289 290 290 290 290 290
311 310 309 307 305 304 305 305 303 303 303 302 301 300 299 298 297 294 292 290 290 290 289 289 289 289 288 288 289 290 290 287 286 286 286 285 285 284 283 283 283 283 284 286 288 289 288 288 288 287 287 286 286 286 285 285 285 285 285 284 284 284 283 283 282 282 283 283 284 284 284 284 284 285 285 285 286 287 288 289 289 289 289 289 289
312 311 309 307 305 305 305 305 304 303 303 302 301 300 299 299 299 297 294 292 291 290 289 289 289 289 289 288 288 288 288 287 286 286 286 285 285 285 284 284 285 285 285 287 288 288 288 288 287 287 286 286 286 285 285 285 285 285 284 284 284 283 283 282 282 282 282 283 283 283 283 284 284 284 284 285 286 287 288 288 288 288 289 288 288
313 311 309 307 306 306 306 305 304 304 303 302 301 301 300 300 299 299 297 295 294 292 292 290 289 289 289 289 288 287 287 286 286 286 286 285 285 284 284 285 288 288 288 288 288 288 288 287 287 287 286 286 285 285 285 285 285 285 284 284 283 283 283 282 282 282 282 282 283 283 283 283 283 284 284 285 286 287 288 288 287 288 288 288 288
314 311 308 307 307 307 306 306 305 304 304 303 302 301 301 300 300 299 299 297 296 296 295 293 292 290 289 289 289 288 287 287 286 286 286 286 285 284 285 288 290 289 289 289 288 288 287 287 287 286 286 285 285 285 285 285 285 285 284 283 283 283 282 282 281 281 282 282 282 282 282 283 283 283 283 284 285 286 287 287 287 287 287 287 288
314 312 309 307 308 308 307 306 306 304 303 303 302 301 301 300 300 300 299 298 298 297 296 296 294 292 289 288 288 288 287 287 287 286 286 286 285 285 286 288 289 288 289 289 288 287 287 287 287 286 286 285 285 285 285 285 285 285 284 283 283 283 282 281 281 281 281 282 282 282 282 282 282 282 282 283 284 285 285 286 286 287 287 287 288
314 313 310 308 308 309 308 307 305 304 303 302 302 302 301 301 300 300 300 299 298 297 297 296 296 294 292 290 289 288 288 287 286 286 286 285 285 285 287 288 289 288 288 289 288 287 287 287 286 286 285 285 285 285 285 285 285 285 284 284 283 283 282 281 281 281 281 281 281 281 281 282 282 282 282 282 283 284 285 285 286 287 287 287 288
314 313 311 309 308 308 308 307 305 303 302 302 302 302 301 301 300 300 300 299 298 298 297 297 296 295 294 293 291 290 289 288 288 288 288 287 287 287 288 289 289 288 288 288 288 287 287 287 286 286 285 285 285 285 285 285 285 284 284 284 283 282 282 282 281 281 281 281 281 281 281 281 281 281 282 282 282 283 284 285 286 286 287 287 288
314 313 311 308 308 308 307 307 305 304 303 302 302 302 301 301 300 300 300 300 299 298 298 297 297 296 295 294 293 292 291 291 290 290 290 290 290 290 290 289 289 289 288 288 288 288 287 287 286 286 285 285 285 284 285 285 284 284 284 283 283 282 282 282 281 281 280 280 280 280 280 281 281 281 281 282 282 283 284 285 286 286 286 287 287
314 313 310 308 307 307 307 306 305 304 303 302 302 302 302 301 301 300 300 300 299 299 298 298 297 297 296 295 294 293 292 293 292 292 292 292 291 291 290 290 289 289 288 288 288 287 287 287 286 286 285 285 284 284 284 284 284 284 284 283 283 282 281 281 281 280 280 280 280 280 280 280 280 281 281 282 282 283 284 285 285 286 286 286 287
314 312 310 308 306 306 306 306 305 304 303 302 302 302 302 301 301 301 300 300 300 299 299 298 298 297 296 295 293 292 292 293 293 293 293 292 292 291 290 290 289 289 288 288 288 287 287 286 286 285 285 285 284 284 284 284 284 284 283 283 282 282 281 281 281 280 280 280 280 279 279 280 280 281 281 282 282 283 284 284 285 285 286 286 286
314 312 310 308 306 306 306 306 305 304 304 303 302 302 302 301 301 301 300 300 300 299 299 299 298 297 296 295 293 292 292 293 293 293 293 293 292 291 291 290 289 288 288 287 287 287 286 286 286 285 285 284 284 284 284 284 283 283 283 282 282 281 280 280 280 280 279 279 279 279 280 280 280 281 282 282 282 283 284 284 284 285 286 286 286
313 312 310 308 307 306 305 305 305 304 304 303 303 302 301 301 301 301 301 300 300 299 299 299 298 298 297 295 293 292 292 293 293 293 293 293 292 291 291 290 289 289 288 287 287 286 286 285 285 285 285 284 284 284 284 283 283 283 282 282 282 281 280 280 280 279 279 279 279 280 280 280 281 282 282 282 282 283 283 284 284 285 285 285 286
313 311 310 308 306 305 305 305 305 304 304 303 303 302 301 301 301 301 301 301 300 300 299 299 298 298 297 296 294 293 293 293 293 293 293 293 292 292 291 290 290 289 288 287 287 286 285 285 285 284 284 284 284 284 283 283 283 282 282 282 281 281 280 279 279 278 278 278 279 280 280 280 281 282 282 282 282 283 283 283 284 284 285 285 285
313 312 310 308 306 305 305 305 305 304 304 303 303 303 302 301 301 302 301 301 300 300 299 299 298 298 297 297 295 293 293 293 293 293 293 293 292 292 291 290 290 289 288 287 286 285 284 284 285 284 284 284 284 284 283 283 283 282 281 281 281 280 279 279 278 278 278 278 279 279 280 280 281 282 282 282 282 283 283 283 283 284 284 285 285
313 312 310 309 307 306 305 305 305 305 304 303 304 304 303 302 302 302 301 301 300 300 300 299 298 298 298 297 296 295 294 293 293 293 293 293 292 292 291 291 290 289 288 287 286 285 284 283 284 284 284 284 284 284 283 283 283 282 281 281 280 280 279 278 278 278 278 278 278 278 280 281 281 282 282 282 282 283 283 283 283 283 284 284 284
313 312 311 309 308 307 306 305 305 305 304 304 303 304 303 303 302 302 301 301 300 300 300 299 299 298 298 297 297 296 295 294 293 294 293 293 292 292 291 291 290 289 288 287 286 285 284 283 283 284 284 284 283 283 283 283 282 282 281 281 280 280 279 279 279 278 278 278 278 278 280 281 282 282 282 282 282 283 283 283 283 283 283 284 284
312 312 311 310 308 308 307 306 306 305 305 304 304 303 303 303 302 302 301 301 300 300 300 299 299 298 298 297 297 296 295 294 294 294 294 293 293 292 291 290 289 288 288 287 286 285 284 284 284 284 284 284 284 283 283 283 282 282 281 281 280 280 280 280 279 278 279 279 278 278 279 281 281 282 282 282 282 282 282 282 282 283 283 283 284
312 312 311 310 309 308 308 307 307 306 306 305 304 304 303 303 302 302 301 301 301 300 300 299 299 298 298 297 297 296 295 295 294 294 294 293 292 292 291 290 289 288 288 287 286 285 284 284 284 284 284 284 284 284 283 283 282 282 281 281 280 280 280 280 279 279 279 279 278 278 279 281 281 281 282 282 281 282 282 282 282 282 283 283 283
311 311 311 310 309 308 308 307 307 307 306 306 305 305 304 303 303 302 302 301 301 301 300 300 299 299 298 297 297 296 295 295 295 294 294 293 292 292 291 290 289 288 288 287 287 286 285 285 284 284 283 283 283 283 283 282 282 282 281 281 281 280 280 280 279 279 279 279 279 279 280 281 281 281 282 281 280 280 281 282 282 282 283 283 283
Wind_Speed
10 9 8 7 6 5 4 4 4 4 5 4 3 4 5 5 4 6 8 8 8 8 8 8 8 8 7 8 8 9 9 9 9 9 9 9 9 10 11 12 12 12 12 13 14 14 14 14 15 15 15 15 16 16 15 16 17 17 16 16 18 18 19 20 17 17 22 23 24 25 24 24 24 24 25 26 26 26 26 25 25 25 24 23 22
11 10 9 8 7 5 4 4 5 5 5 5 6 7 6 6 6 8 9 9 9 8 8 8 8 7 7 8 8 8 9 9 10 9 9 9 9 10 11 12 12 12 13 14 14 14 14 14 14 15 15 15 16 16 16 17 18 18 18 18 19 19 19 21 20 19 22 25 25 25 25 25 24 24 25 26 27 27 27 26 25 25 25 25 24
11 10 9 8 6 5 5 5 5 6 7 8 8 8 7 8 9 10 10 10 9 9 8 8 7 7 7 8 8 8 9 9 10 10 10 10 10 10 11 11 12 12 13 13 14 14 13 14 14 14 15 15 16 16 16 17 18 18 19 19 20 20 20 21 21 22 23 26 26 26 27 26 26 25 26 27 27 27 27 27 27 26 26 25 26
11 10 9 8 6 6 5 6 6 7 8 9 9 9 9 10 11 11 11 10 10 9 9 8 7 7 7 8 9 9 9 9 9 9 10 10 10 10 10 11 11 11 12 12 13 13 13 13 13 13 14 15 15 15 16 18 19 19 20 20 20 21 21 21 22 23 24 26 27 27 26 26 26 26 27 27 26 26 27 27 27 27 26 26 27
11 10 9 8 7 6 6 7 8 9 10 10 10 11 12 13 13 12 11 11 10 9 8 8 7 7 8 8 9 9 9 9 8 9 9 9 9 9 10 10 10 10 11 11 12 12 12 12 12 13 14 15 15 15 16 18 19 19 20 21 21 21 22 23 24 24 25 26 28 27 25 24 25 26 26 26 27 27 27 27 27 27 28 28 28
11 10 9 9 8 7 8 9 11 12 12 11 12 12 13 14 13 12 12 11 10 9 8 7 7 8 8 8 8 8 8 8 8 8 9 9 9 9 9 9 9 9 10 10 11 11 11 12 12 12 14 15 15 16 17 18 18 19 21 22 22 23 24 25 25 25 25 26 27 27 25 24 25 26 25 25 27 28 28 27 27 26 28 29 29
11 10 10 9 8 8 9 11 13 13 13 13 14 14 14 14 13 13 12 11 10 9 8 8 8 8 8 8 8 8 8 8 8 8 8 9 9 8 9 9 9 9 9 10 10 10 11 11 11 11 13 15 16 16 18 19 19 19 21 22 23 24 25 25 25 25 26 26 26 26 25 24 24 25 26 26 25 25 25 27 28 27 28 29 29
11 10 9 9 8 9 11 12 13 14 14 15 15 15 15 15 14 13 12 11 10 9 8 8 8 8 8 8 8 8 8 8 9 8 8 8 8 8 8 8 9 8 9 9 9 10 11 11 10 11 13 15 16 17 18 19 20 20 21 22 23 24 24 25 25 25 25 25 26 25 24 24 24 25 26 25 23 23 23 26 29 30 30 30 30
10 10 9 9 10 11 13 13 14 15 15 16 16 16 16 15 15 14 12 11 10 9 8 8 8 8 8 8 7 8 8 8 10 10 9 8 7 7 8 8 9 9 9 10 9 10 11 11 10 11 12 14 17 17 18 19 21 21 21 22 24 24 24 24 24 25 25 25 25 24 24 24 24 25 25 24 24 25 25 27 28 30 32 33 33
10 10 10 10 11 13 14 14 15 15 16 16 17 17 17 16 15 13 12 11 10 9 8 8 8 8 8 7 7 7 7 8 9 10 10 9 7 7 8 8 9 9 10 11 10 10 11 11 10 11 11 14 17 17 18 21 21 21 21 22 23 23 23 24 24 25 26 25 25 25 24 24 24 25 25 25 25 26 27 28 29 30 31 31 31
10 10 10 11 13 13 14 15 16 16 16 17 17 17 16 16 14 13 12 11 10 9 8 8 8 7 7 7 7 7 7 8 9 10 11 10 8 6 7 8 8 9 10 10 10 11 11 11 11 10 11 15 17 16 19 23 23 23 22 20 20 20 21 23 24 25 26 26 26 26 24 25 26 26 26 26 26 26 28 29 30 31 29 23 22
10 11 11 12 13 14 15 16 16 17 17 17 17 17 16 15 14 13 12 10 9 9 8 8 8 7 7 7 7 6 7 8 9 9 10 10 9 6 6 7 7 8 9 9 10 11 11 11 12 11 12 15 16 17 21 23 24 24 22 19 18 18 20 21 22 24 26 26 26 26 25 25 27 27 27 28 30 29 29 30 30 31 30 26 23
11 12 13 14 14 15 16 17 17 17 17 17 17 16 16 14 13 12 11 10 9 9 8 8 7 7 6 6 7 6 6 8 8 9 10 9 9 7 5 7 6 7 8 9 9 10 11 12 12 11 13 15 14 18 23 24 24 23 21 18 17 19 20 20 20 22 24 25 25 25 26 26 27 28 29 31 34 34 32 32 33 34 34 33 29
13 13 14 15 15 16 16 17 18 18 17 17 17 16 15 14 13 12 11 10 9 9 8 8 7 6 6 6 6 6 6 7 8 9 9 8 8 8 5 6 5 6 7 7 8 9 10 12 13 13 15 14 14 20 24 23 24 23 20 19 19 20 21 21 20 21 22 22 23 25 26 25 27 29 30 32 35 34 32 33 36 38 37 34 33
14 15 16 16 17 17 17 18 18 18 18 17 16 15 15 14 13 11 10 9 9 8 8 7 6 6 5 5 5 5 6 7 8 9 9 8 8 7 5 5 5 6 6 7 8 8 10 12 12 13 15 14 16 23 25 23 23 22 20 21 21 21 21 21 21 23 23 22 23 25 25 25 26 28 29 29 30 30 32 33 34 36 34 32 30
15 16 17 17 17 18 18 19 19 19 18 17 16 15 14 13 12 11 10 9 8 8 7 7 6 5 5 4 5 4 5 8 9 9 10 9 8 6 5 5 5 6 6 7 7 7 8 11 11 13 15 15 18 23 23 22 22 20 20 21 21 21 21 21 24 26 25 23 24 25 26 27 28 28 27 25 24 27 31 31 30 31 30 25 23
16 16 17 18 18 18 19 20 19 19 17 16 16 15 14 13 11 10 10 9 8 8 7 6 6 5 5 4 4 4 3 7 9 9 10 10 8 6 6 5 6 7 6 7 7 7 8 11 12 13 15 16 19 22 22 21 20 19 19 21 21 22 22 22 25 27 26 25 25 25 26 27 26 25 23 21 21 24 27 26 28 31 27 17 15
16 17 17 18 19 19 19 20 19 18 17 16 16 15 14 12 11 10 9 9 8 7 7 6 5 5 5 4 4 4 2 6 9 9 10 11 9 6 7 7 7 8 8 7 7 7 8 11 13 13 16 19 20 20 20 20 19 18 19 20 21 23 23 24 26 27 26 25 25 25 25 25 24 23 21 21 21 22 23 25 29 31 25 16 15
17 17 18 18 19 19 19 19 19 18 17 16 15 15 13 12 11 10 9 9 8 7 6 6 6 5 4 4 4 4 2 5 8 9 9 11 11 6 7 9 9 9 9 8 8 8 8 10 12 15 19 20 18 18 18 19 18 18 18 19 20 22 24 25 26 26 27 27 25 24 24 24 24 23 22 23 23 22 23 27 29 27 23 21 19
18 18 19 19 19 18 18 18 18 17 17 16 15 14 13 12 11 10 9 8 8 7 6 6 6 5 4 3 3 3 2 2 7 9 9 11 12 9 7 9 10 10 9 9 9 9 10 9 10 15 20 19 16 16 17 17 17 17 17 18 19 22 25 27 26 26 26 25 24 24 24 24 24 24 24 24 23 24 26 29 29 26 23 23 22
19 19 20 19 19 18 18 18 17 17 17 17 15 13 12 12 11 10 9 8 8 7 7 6 5 5 4 3 3 2 2 1 4 8 10 10 11 10 8 9 10 10 9 10 10 10 11 10 10 15 19 17 14 15 16 18 17 15 16 18 20 22 25 26 25 24 24 22 22 23 23 24 25 25 25 25 24 25 28 28 28 27 24 23 23
19 20 20 19 19 18 18 18 18 17 16 16 15 14 12 12 11 10 9 8 8 8 7 6 5 5 4 3 3 1 1 1 2 5 8 10 11 11 9 9 10 9 8 9 10 10 10 11 12 15 17 15 14 15 16 18 16 14 18 21 21 23 24 23 22 21 21 21 21 21 22 23 25 25 26 26 27 28 28 27 27 27 26 25 25
19 20 19 19 18 18 19 20 19 17 17 16 15 14 13 12 11 10 9 9 9 8 7 6 5 5 4 3 3 3 1 1 2 4 7 9 10 11 10 10 11 9 7 8 10 10 10 11 12 14 15 15 16 16 16 17 16 17 22 24 23 23 22 20 19 20 20 20 19 19 21 22 24 25 26 27 28 29 29 27 25 25 25 26 25
20 19 19 18 18 18 19 19 18 17 17 16 15 14 13 12 10 10 9 9 8 7 7 6 6 5 5 4 4 3 3 3 3 4 7 8 9 11 11 11 12 10 6 6 9 9 9 11 12 15 17 17 19 18 16 16 17 20 24 25 23 21 19 18 19 20 19 20 19 19 20 20 21 23 25 26 27 27 28 26 24 24 24 24 23
19 19 18 18 18 18 18 17 16 16 16 16 14 14 13 12 10 10 9 9 8 7 7 6 6 6 5 5 4 4 3 4 4 4 6 8 10 11 12 11 13 12 7 7 10 11 12 14 16 17 18 18 19 17 14 15 19 22 23 22 20 18 18 19 20 19 19 19 19 19 20 20 21 22 24 25 25 25 27 28 26 24 24 23 22
19 18 18 18 18 18 17 16 16 16 15 14 13 13 13 11 10 10 9 9 8 7 7 7 7 6 5 5 5 5 4 4 4 3 5 7 8 11 13 13 13 14 11 11 14 14 14 15 16 17 17 17 17 16 14 16 19 19 19 18 16 16 18 19 19 19 19 19 19 19 20 21 22 22 22 23 23 24 26 28 27 26 25 24 22
19 18 18 18 18 18 17 17 16 16 15 13 12 12 12 11 10 10 10 9 8 8 8 8 7 7 6 6 5 5 5 4 3 2 2 4 5 6 8 10 11 11 9 10 13 12 12 14 15 16 16 16 16 15 14 15 17 16 17 17 16 16 18 19 19 19 18 19 19 19 20 21 21 21 21 22 23 24 26 27 27 27 26 24 21
19 18 18 18 18 17 17 18 17 16 15 14 12 12 11 11 10 10 10 9 9 9 8 8 8 7 7 6 6 6 6 4 3 1 0 2 3 4 5 6 7 8 8 11 12 11 10 12 13 13 13 13 13 14 14 14 15 15 16 17 16 17 18 18 18 18 18 18 19 19 20 21 21 20 20 21 22 23 25 26 26 26 26 24 21
19 18 18 18 17 16 16 18 17 15 15 14 12 11 12 12 10 9 9 10 10 10 9 8 8 7 7 6 6 5 4 5 5 3 1 2 3 4 4 5 6 7 8 11 12 10 9 10 11 11 12 12 13 14 14 15 15 15 16 17 17 17 18 18 19 19 19 19 20 20 21 21 21 21 20 20 21 23 24 26 26 25 25 23 21
18 18 18 17 17 17 17 17 17 15 15 15 13 12 14 16 14 11 10 13 14 13 12 10 10 9 7 6 7 6 5 6 7 4 0 3 4 5 4 6 7 7 9 10 9 8 9 9 10 11 12 12 13 14 14 15 15 16 16 16 17 17 18 18 19 19 19 19 19 19 20 20 21 21 21 20 21 22 23 24 25 24 24 23 21
18 18 18 18 19 19 17 17 17 15 15 15 14 13 14 16 16 15 13 14 15 15 15 14 14 13 10 7 7 9 9 9 7 3 1 3 5 6 6 7 7 8 9 9 7 7 8 9 9 10 11 12 12 13 14 14 15 16 16 16 16 17 17 18 19 20 19 18 18 19 19 19 20 21 20 20 21 22 22 23 24 23 23 22 21
20 20 19 18 21 20 17 17 18 16 16 16 14 14 14 14 16 18 16 15 14 15 15 16 15 14 13 11 8 8 10 9 6 3 1 2 4 5 6 7 7 7 8 7 5 7 7 8 9 10 10 11 12 12 13 14 14 15 16 16 16 17 17 19 20 19 19 18 18 19 19 19 20 20 20 19 20 21 21 22 23 23 23 22 21
22 21 20 19 21 21 18 17 18 17 17 17 16 15 15 14 14 16 17 17 16 16 16 16 15 14 14 13 11 10 10 9 6 5 3 3 4 6 7 6 6 7 7 6 6 6 7 7 8 9 9 10 12 12 13 13 14 14 15 16 16 16 17 18 18 18 18 18 18 18 19 19 19 20 19 19 20 21 21 21 21 22 22 22 22
23 23 23 23 23 22 20 18 19 18 17 17 17 16 16 15 14 15 16 16 16 17 18 18 18 17 15 14 13 13 12 10 8 7 5 4 4 6 7 7 6 5 5 5 5 6 6 6 7 8 8 9 11 11 12 13 13 14 14 15 15 15 16 18 17 17 18 18 17 18 19 19 19 19 19 18 19 20 20 20 21 22 22 22 23
22 23 27 27 24 22 21 20 19 19 18 18 18 17 17 16 16 15 15 16 15 16 17 19 21 21 19 17 15 14 13 11 10 9 8 6 6 6 7 8 7 6 5 5 5 6 6 6 6 7 8 9 10 11 11 12 12 13 14 15 15 15 16 17 17 17 18 17 17 18 19 19 19 19 18 18 18 20 20 21 21 21 21 22 23
22 22 27 29 24 21 21 21 19 20 20 19 19 18 17 17 17 16 15 15 15 14 14 15 18 20 21 19 17 15 14 13 12 11 10 9 8 7 7 8 7 6 6 5 5 5 5 5 6 6 7 8 9 10 11 11 12 12 13 14 14 14 15 16 16 17 17 17 17 18 18 18 18 19 18 17 17 18 19 20 21 21 21 22 22
24 21 25 28 25 21 21 21 20 21 21 20 19 19 18 18 18 17 16 15 15 14 13 13 13 16 19 21 21 19 16 15 13 12 12 12 11 10 10 9 8 6 6 6 5 5 5 5 5 6 6 7 8 9 10 11 11 12 12 13 13 14 15 15 15 15 16 16 16 17 18 18 18 18 18 17 17 17 19 21 21 21 21 22 21
26 24 26 30 28 23 21 21 22 23 23 20 19 20 20 19 19 18 17 16 16 15 14 14 15 15 17 20 22 21 18 16 15 14 15 16 15 13 12 10 9 7 7 6 5 5 5 5 4 5 6 7 7 8 9 10 10 11 12 12 12 13 14 14 14 14 15 16 16 16 17 17 18 18 17 17 17 17 18 21 22 21 22 22 22
27 27 30 33 31 26 22 21 23 24 23 21 21 21 21 20 20 19 18 17 17 17 16 15 16 16 15 16 19 19 18 17 16 16 16 16 15 13 12 10 9 8 7 6 6 5 5 5 4 4 5 6 7 8 8 9 10 10 11 11 12 13 14 14 14 14 15 15 16 16 16 17 17 17 17 16 17 17 18 20 21 22 21 22 22
27 28 32 36 35 30 25 22 23 25 24 23 23 22 22 22 21 20 20 19 18 18 18 17 17 17 16 17 20 21 19 18 17 16 15 14 14 13 12 11 9 8 8 7 6 6 5 5 5 5 5 5 6 7 7 8 9 9 10 10 11 12 13 13 13 14 14 15 15 16 16 17 17 17 16 16 17 17 18 18 20 21 21 21 21
26 27 33 39 39 33 26 24 25 26 25 24 24 23 23 23 22 21 21 20 19 19 19 18 18 17 18 20 23 23 19 16 15 15 14 14 14 13 12 11 10 9 8 8 7 6 6 5 5 5 5 4 5 6 7 7 8 9 9 10 10 10 12 12 12 13 14 14 15 15 16 17 17 17 17 18 18 18 17 17 18 19 20 20 21
26 26 33 41 41 33 26 25 26 26 25 24 25 24 23 22 23 22 21 21 21 19 19 19 18 17 19 23 26 25 20 15 14 14 14 14 14 13 12 11 11 10 9 8 7 7 6 6 6 5 5 4 5 5 6 6 7 8 8 9 9 10 10 11 12 13 13 13 14 15 16 17 17 17 17 18 18 18 17 17 17 18 20 20 20
28 27 31 40 44 40 32 28 26 26 26 26 25 25 24 23 22 23 22 22 21 20 19 19 18 17 19 24 28 27 22 17 15 15 15 14 14 14 13 12 11 11 10 9 8 8 7 6 6 6 5 5 5 4 5 5 6 7 8 8 8 9 9 10 11 12 13 13 14 15 16 16 16 16 17 18 18 18 17 17 17 18 19 20 20
26 25 28 38 45 43 37 31 28 28 29 29 27 25 25 24 22 22 23 22 22 22 21 19 18 18 18 22 27 28 24 20 18 17 16 15 15 14 14 13 12 12 11 10 9 9 8 7 7 6 6 6 5 5 4 5 5 6 7 7 8 8 8 9 10 11 12 13 14 15 15 16 16 16 16 18 18 18 17 17 17 18 19 20 19
26 24 26 33 39 37 33 30 30 31 31 30 26 25 26 25 24 23 23 23 22 22 22 20 20 19 19 21 26 28 25 22 20 19 17 17 16 15 15 14 13 13 12 11 11 11 10 8 8 8 7 7 6 5 4 4 5 5 6 6 7 7 7 8 9 11 11 12 14 14 15 15 15 15 16 18 18 17 17 17 17 17 18 19 19
26 25 25 28 33 34 32 29 28 29 29 28 27 25 25 26 25 24 24 24 23 23 22 22 21 21 21 21 23 26 26 24 22 20 19 18 17 17 16 15 15 14 13 12 12 13 12 10 9 9 8 7 6 6 5 4 4 5 5 5 6 6 7 8 10 10 10 11 13 13 13 14 15 15 16 17 17 16 16 16 15 16 17 18 18
25 25 25 26 29 33 33 30 29 29 28 28 28 27 26 26 26 25 25 25 25 23 23 23 23 23 23 22 22 23 25 24 23 21 21 20 19 18 17 16 16 15 14 13 14 14 14 12 11 10 9 8 8 7 5 4 4 4 5 5 5 6 7 8 9 9 9 9 11 11 11 13 14 14 15 16 16 15 16 15 15 15 15 16 17
25 25 25 25 27 29 29 29 31 32 29 27 29 29 26 25 25 25 25 27 26 24 23 24 24 24 24 23 22 22 23 24 24 22 21 21 20 20 18 18 18 17 15 15 16 15 14 13 12 11 10 10 9 8 6 5 5 4 4 5 6 6 7 8 8 8 8 8 9 9 10 12 13 13 14 15 15 14 15 15 14 14 14 13 15
26 25 25 25 27 28 28 28 30 31 29 27 29 29 26 25 26 26 26 27 27 26 25 25 25 25 24 24 24 23 23 23 24 24 22 21 21 21 20 20 21 19 16 16 17 17 16 14 13 13 12 11 10 9 8 7 6 5 5 7 8 6 6 6 7 7 7 8 8 8 9 10 12 12 13 14 13 13 13 14 14 14 13 12 14
26 26 26 24 25 28 29 28 29 29 28 27 27 27 27 28 28 27 26 26 26 26 27 26 26 26 25 25 25 25 24 24 25 24 23 22 22 22 22 22 23 22 19 17 17 17 16 15 15 14 13 12 11 10 9 8 7 7 7 8 8 5 5 6 6 6 6 7 7 6 7 9 11 11 11 12 12 12 13 14 14 14 12 12 12
24 25 26 25 25 26 27 28 28 29 29 29 28 28 29 30 28 27 27 27 27 27 28 28 27 26 26 26 26 26 26 26 25 25 24 24 24 24 24 25 26 26 22 19 18 17 17 16 16 16 15 14 13 12 10 9 10 9 8 8 7 4 4 5 5 5 5 6 7 6 6 8 9 9 10 11 11 11 12 13 14 13 12 11 11
Wind_Direction
221 222 222 223 230 239 239 233 230 220 212 210 197 175 158 155 154 139 127 120 116 109 99 90 80 72 65 58 53 50 48 46 43 40 38 37 34 31 26 23 23 20 15 13 12 8 5 2 1 359 356 352 349 347 345 344 342 337 335 333 330 329 327 321 315 311 312 316 317 318 321 323 320 319 319 318 317 318 317 316 316 314 311 310 308
220 221 223 225 230 234 227 223 214 196 186 175 161 159 166 171 158 135 125 120 114 107 99 91 82 75 70 63 59 56 53 50 45 40 37 34 33 30 25 23 22 19 15 13 10 7 4 0 359 358 354 351 348 346 345 344 341 337 336 335 331 329 327 322 318 313 313 316 318 319 322 323 321 319 319 317 317 317 315 314 315 315 313 311 308
218 218 220 225 227 225 219 208 197 182 169 160 157 163 168 160 143 132 129 124 117 108 100 92 85 80 75 68 65 62 56 52 45 41 37 33 32 29 25 23 20 17 15 12 8 6 3 360 358 355 351 350 347 345 344 343 341 338 336 335 331 327 326 324 319 315 313 314 317 319 322 322 320 318 317 316 314 314 313 314 314 313 312 311 310
218 218 219 221 221 219 210 195 183 169 157 154 158 163 157 143 134 133 132 126 118 110 100 94 90 84 77 72 68 62 56 50 44 39 36 32 30 26 24 22 19 16 13 10 6 3 0 357 353 351 349 348 346 344 344 343 342 339 336 334 330 327 325 323 319 315 311 311 314 317 319 319 317 316 316 315 314 313 312 312 311 311 310 309 309
218 219 220 220 218 212 198 183 170 161 158 159 158 154 144 136 134 134 131 123 115 109 101 95 90 83 77 73 68 61 55 48 42 38 33 30 28 24 21 18 16 15 10 7 5 360 356 353 349 349 350 347 344 343 344 344 342 339 336 333 330 327 325 321 318 315 311 310 311 313 314 315 314 315 317 317 315 314 311 310 310 309 307 307 306
217 219 219 220 217 203 185 173 164 160 164 165 156 145 139 136 133 130 126 121 114 108 102 96 88 80 77 73 67 61 54 45 39 34 29 27 25 22 19 14 10 10 6 4 1 356 352 350 347 348 351 348 344 343 343 343 340 338 335 333 330 328 325 322 320 317 313 310 310 311 312 313 313 314 317 318 315 313 312 311 308 307 307 307 305
214 217 217 217 212 194 177 168 160 158 161 160 150 141 136 134 130 127 123 119 113 107 102 96 88 82 79 74 68 61 51 41 33 26 24 24 22 18 14 10 7 4 1 359 356 353 350 348 347 349 351 349 345 342 342 341 337 334 335 333 331 329 326 324 322 319 315 312 310 310 310 311 311 312 316 317 313 310 311 311 309 309 308 306 304
212 214 211 207 197 180 167 160 157 157 157 152 144 137 136 134 131 127 122 115 110 106 102 96 89 85 81 76 70 63 52 42 33 26 20 15 15 14 8 6 4 0 357 355 352 351 350 347 346 348 348 347 345 341 340 339 335 332 333 333 331 328 327 326 324 321 318 315 312 310 309 309 310 312 316 318 314 311 311 311 309 309 308 305 302
211 208 203 194 181 168 160 154 153 153 150 145 141 139 140 137 131 125 120 115 110 106 102 96 92 90 84 78 73 65 54 44 39 38 32 18 6 4 4 3 0 358 357 355 353 352 349 345 343 342 341 342 341 337 334 334 333 329 329 331 330 328 327 325 324 324 321 317 315 313 310 309 309 312 316 318 315 311 311 310 307 306 307 305 301
203 199 195 183 169 160 155 152 148 146 143 142 141 141 140 134 127 122 119 115 112 108 102 97 95 92 85 81 75 66 56 45 42 42 40 35 17 358 359 2 358 358 357 354 353 352 348 344 341 337 339 342 339 335 331 330 329 325 324 326 326 325 325 324 323 323 322 318 314 313 310 308 308 311 312 313 313 311 311 311 308 307 308 305 302
192 190 183 170 160 155 150 146 144 142 142 142 140 139 136 131 127 124 120 116 113 109 104 100 97 92 88 84 78 71 57 45 42 40 36 36 30 7 354 358 358 358 358 354 350 348 346 344 342 339 342 343 339 336 333 330 328 324 321 323 324 323 322 321 320 320 321 318 313 311 308 307 308 309 309 310 312 312 312 311 310 311 310 306 302
180 176 167 160 156 151 146 143 143 142 142 142 140 137 134 131 128 125 122 119 115 110 106 103 99 94 91 88 84 75 54 41 40 36 29 27 32 30 1 354 359 358 355 353 348 347 345 343 343 342 342 340 337 338 336 331 329 326 323 322 323 321 320 318 316 318 321 318 313 311 309 308 308 308 308 310 311 312 311 310 310 311 308 303 297
170 164 160 156 152 149 147 145 143 143 142 142 139 136 134 131 129 127 124 121 117 112 109 106 100 97 95 92 88 75 50 39 35 31 25 19 32 46 13 349 357 354 350 351 347 347 346 344 345 343 340 340 339 339 337 333 330 329 327 325 323 321 320 317 314 316 320 317 312 310 311 310 308 307 308 310 311 311 312 312 313 311 307 303 297
162 158 155 153 151 149 149 147 144 143 144 142 139 137 135 132 131 129 127 124 119 116 113 107 102 101 101 97 91 76 48 36 30 26 22 18 33 46 13 340 346 345 344 347 344 347 349 346 345 343 342 344 340 336 335 334 330 329 329 329 326 323 321 319 318 318 318 317 313 311 312 312 311 310 311 312 311 311 313 315 315 312 308 304 298
157 155 154 153 152 151 150 148 145 144 144 142 140 138 136 135 134 132 129 126 122 120 116 112 109 105 104 103 97 78 38 26 27 24 21 22 34 33 350 325 340 342 342 345 343 347 353 351 348 344 344 345 335 331 334 335 330 327 329 329 327 325 322 320 319 317 314 314 312 312 312 311 311 310 312 314 312 312 315 314 313 314 311 306 301
155 154 154 153 153 153 151 148 146 146 146 144 141 140 139 138 137 134 132 128 125 122 118 117 116 111 108 107 106 89 33 17 23 24 20 25 31 14 332 326 345 341 340 345 345 347 352 354 353 347 346 343 332 330 337 339 331 326 328 328 325 325 323 320 318 317 315 314 313 314 313 311 311 309 311 315 312 314 319 316 317 322 320 315 315
154 154 154 154 154 153 151 149 148 148 148 146 143 142 142 141 139 137 136 132 128 127 124 124 122 115 110 106 110 109 42 15 21 25 22 26 26 360 333 339 348 344 345 345 344 348 347 346 350 351 347 339 332 335 342 342 333 328 328 326 325 325 325 323 321 320 321 322 321 320 317 316 318 316 316 319 318 321 325 324 326 330 326 320 328
155 155 154 154 153 152 152 151 150 150 150 147 145 144 143 142 141 141 138 134 132 133 132 131 126 119 115 110 113 121 62 11 19 25 22 27 31 3 340 350 350 346 351 347 341 351 348 337 337 343 343 337 336 342 347 344 336 330 328 327 327 326 326 326 323 321 325 330 331 329 327 326 328 328 327 327 326 327 327 326 330 331 325 320 328
155 155 153 152 152 151 152 152 150 150 149 147 146 146 144 143 143 142 139 134 135 139 139 137 132 124 121 117 108 109 88 11 15 25 24 28 35 18 347 355 355 347 350 349 344 350 354 341 330 330 334 336 341 350 353 349 339 328 328 331 327 324 325 325 322 321 326 333 336 335 335 337 337 336 335 332 330 330 327 325 328 328 323 320 324
152 152 150 150 150 150 151 151 150 150 148 146 146 146 144 145 144 142 139 138 139 142 140 137 134 132 134 131 111 98 103 13 3 19 29 30 35 35 9 357 356 348 344 346 346 347 350 348 333 327 331 337 348 357 359 358 347 331 330 333 325 322 325 321 318 321 324 329 336 338 339 341 341 340 339 336 332 332 331 329 330 330 328 322 319
148 149 148 149 149 148 149 150 148 148 147 146 146 145 146 148 146 142 142 141 142 143 142 141 138 139 146 144 131 99 96 65 346 6 25 29 33 38 25 2 357 349 339 344 350 345 345 347 337 328 330 339 354 359 360 4 358 338 332 335 331 332 329 318 314 322 326 327 336 342 344 345 344 344 343 340 336 334 334 334 334 333 332 327 319
147 149 148 149 148 147 148 149 148 146 148 149 147 146 148 148 145 145 146 146 148 148 146 147 148 152 160 153 144 144 71 57 343 356 18 26 31 35 29 16 10 357 338 342 349 343 342 345 334 329 335 348 358 358 357 1 358 340 339 346 346 345 337 322 318 327 331 331 337 344 348 348 346 345 344 342 339 335 335 337 336 333 333 334 330
148 149 148 148 147 148 153 155 153 150 151 153 150 149 150 148 146 149 151 151 155 155 152 159 164 166 174 171 159 174 212 294 337 4 22 26 27 29 28 24 22 13 346 340 346 343 342 340 333 337 350 359 0 357 355 352 344 340 350 356 354 348 340 329 328 332 333 334 337 342 346 347 346 346 345 342 338 334 335 338 339 337 336 338 340
148 147 148 149 149 151 156 158 156 154 155 155 153 152 151 149 150 156 161 162 163 161 162 171 179 180 181 185 185 185 197 229 286 354 25 32 30 27 25 23 24 25 10 342 342 340 338 342 349 356 2 2 358 355 351 342 335 342 353 355 351 346 340 336 336 336 335 338 338 338 341 342 341 342 342 339 336 334 335 339 342 343 343 341 344
149 149 150 152 153 154 155 156 155 157 158 159 158 156 154 154 159 165 170 173 171 169 172 178 187 192 189 187 194 197 197 211 244 302 347 5 12 14 12 12 16 21 16 346 340 342 345 354 360 358 356 354 351 347 340 334 336 342 348 347 344 343 342 340 339 338 338 339 337 336 339 338 336 337 338 338 338 338 340 342 344 348 349 347 348
152 152 153 154 156 156 155 155 157 160 163 165 164 161 159 162 167 172 178 180 178 178 181 184 190 194 195 194 194 197 205 210 220 260 316 336 342 349 353 353 358 5 3 346 341 340 341 347 349 346 345 346 344 339 333 333 338 343 346 345 344 344 343 342 339 338 340 339 336 335 337 336 334 336 338 341 344 345 343 343 345 350 353 352 352
155 155 157 157 159 159 158 159 161 163 167 170 167 165 166 168 173 180 185 184 183 184 185 190 194 193 194 199 196 193 204 213 213 226 307 330 322 330 344 342 343 352 354 343 338 333 328 333 338 341 342 343 344 343 339 337 340 344 347 347 346 345 344 341 339 339 340 338 335 334 335 336 336 340 343 346 348 349 347 345 346 350 353 353 353
161 161 161 161 163 165 164 165 166 167 172 174 171 170 173 175 181 189 190 188 189 191 190 192 195 196 195 195 195 203 207 198 182 189 280 7 351 344 346 342 341 345 341 340 343 337 325 328 336 340 339 341 345 347 346 344 344 345 346 347 346 346 346 344 343 343 341 338 336 337 338 339 341 344 346 349 349 350 350 350 349 350 353 355 357
165 164 165 166 167 168 169 171 172 173 175 176 174 175 178 181 186 191 195 195 194 192 192 194 194 196 198 194 196 208 205 188 192 205 181 65 38 20 359 349 350 344 338 348 354 345 328 329 337 340 341 344 348 349 347 346 345 344 346 347 347 347 348 348 347 345 342 339 339 340 341 342 343 345 347 349 350 350 350 352 352 352 355 357 359
168 170 171 171 172 171 172 175 178 178 178 176 174 177 183 187 188 188 195 203 202 195 191 190 188 188 190 195 204 204 190 192 210 223 135 48 29 22 6 355 356 349 346 357 360 340 328 333 340 342 344 345 348 349 348 346 344 344 345 347 348 349 349 349 347 343 340 341 341 341 343 343 342 345 346 348 349 350 351 354 355 355 356 357 358
174 177 178 178 178 176 176 178 180 181 182 180 178 178 182 189 194 195 201 209 210 206 201 198 195 192 186 184 202 211 209 211 219 227 46 21 6 7 4 359 356 350 354 3 357 329 327 336 340 343 345 345 346 347 347 345 344 343 344 346 348 349 349 348 346 341 340 342 343 343 344 343 342 343 344 346 348 351 353 355 357 357 357 357 356
181 183 182 182 181 181 180 181 182 183 183 183 184 183 181 186 196 203 209 212 211 210 209 207 206 203 196 186 183 202 220 224 219 221 271 337 350 352 353 353 349 346 353 354 331 320 330 336 338 341 343 342 344 345 345 345 343 342 344 346 347 348 349 346 343 341 340 341 342 343 344 342 340 340 340 343 348 351 353 356 357 356 356 356 355
186 183 181 179 181 183 184 183 184 185 185 185 188 189 189 190 192 197 204 210 212 213 213 212 210 208 207 202 191 195 218 229 224 226 250 299 328 331 337 340 341 349 352 329 302 315 334 335 334 340 341 340 341 342 341 343 342 341 343 346 345 345 346 344 343 343 341 340 341 343 342 341 341 340 340 344 351 354 354 356 357 355 355 355 353
190 187 185 183 181 184 188 187 187 189 188 188 190 192 196 198 194 189 190 196 204 211 215 216 215 211 211 212 207 207 220 230 230 234 247 269 297 316 327 322 312 320 327 305 299 319 333 331 331 336 337 337 338 338 337 339 341 340 342 344 343 343 344 345 345 345 342 340 342 343 341 341 342 342 341 345 352 355 355 356 357 356 355 353 350
194 194 195 193 186 186 190 190 189 190 190 191 193 195 197 199 198 194 190 190 195 203 209 214 218 217 215 215 213 215 222 228 230 235 243 256 276 302 310 296 279 274 271 273 293 311 318 324 329 330 333 336 336 334 334 336 339 341 342 342 341 342 345 346 345 343 341 340 341 341 340 341 344 344 344 345 350 354 355 353 354 354 354 352 348
195 194 197 197 192 189 191 192 190 192 191 192 194 196 198 200 199 198 198 196 197 201 203 206 213 219 220 220 219 218 220 226 230 234 239 249 263 277 282 275 272 277 273 271 288 302 302 310 321 324 329 333 333 332 333 335 338 340 341 340 340 343 346 345 341 340 340 340 340 340 340 342 344 345 345 343 345 351 353 350 348 351 352 350 348
197 193 194 196 195 193 193 191 192 194 194 192 193 195 198 201 200 200 202 201 200 204 204 197 197 204 211 217 221 221 220 224 230 234 239 247 254 257 260 263 270 280 279 272 281 295 295 297 311 321 325 328 330 331 331 333 337 339 339 340 341 343 343 340 337 339 340 340 340 341 341 341 343 345 344 342 342 346 350 348 346 347 349 349 350
200 198 197 198 195 193 192 191 193 196 194 192 194 197 198 200 201 202 205 204 201 203 205 198 192 192 199 208 215 217 217 218 222 227 233 239 243 244 245 249 254 262 268 269 270 280 287 290 298 312 318 323 327 328 327 330 335 338 338 340 341 341 341 340 341 343 343 341 341 341 340 340 342 343 344 343 342 343 348 349 348 346 347 351 352
203 205 206 204 198 194 192 189 190 193 193 193 197 198 198 199 200 202 205 205 202 203 206 204 201 202 201 197 196 197 200 204 208 215 221 225 228 229 231 236 243 248 254 259 259 262 273 280 284 294 306 314 319 322 324 328 332 335 336 339 341 343 344 344 344 345 344 342 341 340 339 339 340 340 342 343 342 341 344 349 350 348 346 348 350
204 205 209 207 202 198 195 191 190 193 194 194 197 199 198 200 201 201 203 205 204 204 207 207 206 207 204 194 187 186 191 198 206 211 214 215 216 218 222 229 237 240 243 248 250 254 262 268 273 281 292 302 311 318 322 325 329 333 335 337 340 343 343 343 343 342 340 338 338 338 337 337 337 337 339 340 339 338 340 345 349 349 347 347 348
203 204 209 209 205 200 198 196 195 196 195 194 197 199 199 200 201 201 203 205 206 206 207 209 210 208 204 199 195 194 195 200 206 210 212 213 213 214 217 223 228 232 235 239 241 244 250 255 262 271 278 288 303 312 316 321 326 331 334 337 340 342 341 340 340 338 336 335 335 335 336 336 335 335 335 336 337 338 340 344 348 350 349 349 348
202 202 207 208 204 199 198 199 200 198 196 196 199 201 201 200 200 201 202 204 205 206 207 209 210 209 205 205 206 205 205 207 210 211 212 213 213 213 215 218 221 224 227 230 232 235 240 244 250 259 264 273 290 305 312 319 325 328 331 335 339 340 340 339 337 335 334 333 332 332 332 333 334 333 334 335 337 340 342 343 346 350 350 350 350
204 203 207 207 203 201 201 201 198 196 196 198 199 200 200 201 201 201 201 202 204 206 208 208 208 207 206 209 212 212 212 213 214 214 214 213 213 213 214 215 216 217 219 221 224 227 230 235 240 247 253 258 269 288 303 313 321 325 326 328 333 336 337 336 336 335 334 332 331 330 330 332 333 334 336 338 339 340 342 343 346 350 351 350 351
210 206 209 209 206 204 203 201 197 197 200 201 200 200 200 201 202 202 203 203 203 205 207 207 207 204 201 203 208 210 212 214 216 216 215 214 213 213 213 213 211 210 210 213 216 218 220 226 231 236 244 250 256 269 286 299 311 318 320 321 325 329 333 335 334 334 332 331 330 329 330 332 333 335 338 340 339 340 343 345 346 349 351 351 352
215 210 210 210 207 204 203 201 201 202 202 201 200 199 200 202 204 204 204 203 203 205 207 207 206 203 197 194 199 204 208 212 214 214 214 213 213 213 213 211 208 205 206 208 210 212 214 217 222 230 237 242 246 254 266 279 293 304 311 314 317 323 330 333 333 334 334 331 328 327 328 332 335 336 338 339 339 341 343 344 345 348 350 350 351
220 215 211 209 207 206 205 202 201 201 199 198 199 199 200 202 204 204 204 203 202 202 205 205 204 204 201 197 198 202 205 208 211 211 212 212 212 211 211 209 205 204 205 204 208 215 219 216 214 223 231 234 238 244 252 264 276 286 296 301 307 316 324 328 337 346 345 332 325 324 326 329 331 334 336 338 338 339 341 343 345 348 349 350 351
227 220 215 211 209 210 208 204 203 203 200 198 200 201 199 200 201 202 203 205 203 201 203 204 203 203 204 202 200 201 203 205 207 209 209 210 210 209 207 205 201 202 202 201 205 218 225 222 217 219 224 227 232 238 245 250 255 269 283 284 287 305 319 329 344 356 352 338 332 329 325 326 330 333 336 338 339 339 341 344 346 347 348 350 352
234 228 221 215 212 211 210 207 207 207 205 202 203 204 201 198 198 199 202 204 203 201 202 204 203 204 205 204 203 202 201 202 205 207 207 207 207 206 204 201 199 199 200 200 205 214 222 221 218 218 219 223 230 233 234 236 241 252 263 264 269 294 318 333 347 354 354 355 356 343 325 324 330 332 333 337 338 339 342 345 346 347 347 349 351
238 234 228 220 214 213 212 209 207 208 207 205 205 205 202 199 199 200 201 202 202 202 203 203 203 203 203 202 202 201 200 199 202 204 205 204 203 202 200 199 198 198 199 200 206 215 219 219 217 215 214 218 224 226 225 230 234 234 242 255 270 297 325 334 338 347 358 11 11 351 326 324 331 333 334 337 339 339 342 345 345 345 347 350 352
241 237 233 226 219 215 214 213 210 209 208 207 206 204 202 202 202 201 199 199 200 202 203 203 202 202 202 201 199 199 198 198 199 201 201 201 201 199 196 196 199 202 201 199 204 212 215 214 215 216 214 213 216 220 223 225 224 225 239 259 274 299 327 327 327 342 2 17 23 10 336 327 331 334 336 340 341 341 343 344 344 345 349 352 354
242 239 236 233 227 221 218 215 214 212 210 209 209 208 206 205 204 201 198 199 201 202 201 201 201 200 200 199 198 197 198 198 198 198 200 199 197 194 193 197 202 205 203 198 201 207 209 208 211 216 216 214 215 217 217 219 222 232 250 267 274 284 308 316 323 338 355 15 34 30 349 326 330 337 338 340 343 342 342 343 344 346 350 354 356